Home   Weather   Malabo   Past weeks

Flag for Equatorial Guinea Past Weather in Malabo, Equatorial Guinea — Yesterday and Last 2 Weeks

Now
77 °F

Partly cloudy.


Feels Like: 78 °F
Forecast: 75 / 82 °F
Wind: 8 mph from Southwest

Location: Malabo/Fernando Poo

Current Time: Sep 25, 2016 at 8:06:42 PM

Latest Report: Sep 25, 2016 at 7:00 PM


Visibility: N/A

Pressure: 29.86 "Hg

Humidity: 89%

Dew Point: 73 °F

Location of MalaboLocation

Past Weather in Malabo — Graph

°F

Malabo Temperature Yesterday

Maximum temperature yesterday: 81 °F (at 4:00 PM)
Minimum temperature yesterday: 75 °F (at 5:00 AM)
Average temperature yesterday: 77 °F

High & Low Weather Summary for the Past Weeks

 TemperatureHumidityPressure
High86 °F (Sep 17, 12:00 PM)94% (Sep 11, 7:00 PM)30.01 "Hg (Sep 11, 7:00 PM)
Low70 °F (Sep 13, 4:00 AM)66% (Sep 17, 11:00 AM)29.83 "Hg (Sep 20, 4:00 PM)
Average78 °F87%29.93 "Hg
* Reported Sep 10 6:00 PM — Sep 25 6:00 PM, Malabo, Weather by CustomWeather, © 2016

Note: Actual official high and low records may vary slightly from our data, if they occured in-between our weather recording intervals... More about our weather records

Advertising

Malabo Weather History for the Previous 24 Hours

Scroll right to see more
 ConditionsComfort  
Time TempWeatherWind HumidityBarometerVisibility
6:00 PM
Sun, Sep 25
79 °FBroken clouds.10 mph84%29.86 "HgN/A
5:00 PM79 °FBroken clouds.10 mph84%29.86 "HgN/A
4:00 PM81 °FBroken clouds.9 mph84%29.83 "HgN/A
3:00 PM81 °FBroken clouds.10 mph84%29.86 "HgN/A
2:00 PM82 °FBroken clouds.9 mph79%29.86 "HgN/A
1:00 PM81 °FBroken clouds.10 mph84%29.92 "HgN/A
12:00 PM81 °FBroken clouds.9 mph84%29.95 "HgN/A
11:00 AM81 °FBroken clouds.9 mph84%29.95 "HgN/A
10:00 AM81 °FBroken clouds.5 mph79%29.98 "HgN/A
9:00 AM81 °FPartly sunny.No wind79%29.95 "HgN/A
8:00 AM77 °FBroken clouds.1 mph89%29.95 "HgN/A
7:00 AM75 °FBroken clouds.No wind94%29.92 "HgN/A
6:00 AM75 °FPassing clouds.No wind89%29.92 "HgN/A
5:00 AM75 °FPassing clouds.2 mph94%29.92 "HgN/A
4:00 AM75 °FPassing clouds.2 mph89%29.92 "HgN/A
3:00 AM75 °FPassing clouds.No wind89%29.89 "HgN/A
2:00 AM73 °FPassing clouds.2 mph94%29.92 "HgN/A
1:00 AM73 °FPassing clouds.No wind94%29.92 "HgN/A
12:00 AM73 °FPassing clouds.1 mph94%29.95 "HgN/A
11:00 PM
Sat, Sep 24
75 °FPassing clouds.2 mph89%29.95 "HgN/A
10:00 PM75 °FPassing clouds.3 mph89%29.92 "HgN/A
9:00 PM75 °FPassing clouds.6 mph89%29.92 "HgN/A
8:00 PM75 °FPassing clouds.7 mph94%29.89 "HgN/A
Weather by CustomWeather, © 2016

See weather overviewHow to use our weather pages